Wind_Speed
19 19 19 19 18 18 17 17 17 16 15 15 14 13 13 12 12 12 13 12 11 9 7 7 8 9 10 10 11 11 12 15 17 18 17 14 14 16 15 14 15 17 20 21 19 18 17 17 17 16 15 14 14 15 15 15 15 14 12 9 9 6 3 5 7 7 8 5 3 4 5 7 8 8 7 8 9 10 9 9 9 8 9 8 8 10 11 11
19 19 19 19 19 19 19 18 18 17 17 16 16 15 14 14 14 13 13 13 12 12 10 9 8 8 9 10 11 12 12 13 15 19 18 15 15 15 15 15 17 19 20 20 19 19 19 18 19 18 17 16 16 16 16 17 16 15 13 11 11 7 3 5 5 7 10 6 5 6 6 8 8 8 7 7 9 9 10 10 10 9 9 9 10 11 12 12
21 20 20 20 20 20 20 20 19 19 18 17 17 16 16 16 16 15 14 13 13 13 13 12 11 9 9 9 10 12 13 12 14 16 15 16 17 16 16 17 19 21 20 20 21 22 21 21 21 21 20 18 17 17 18 18 17 16 14 12 11 7 5 5 7 8 8 7 7 7 8 10 8 8 8 7 8 8 8 11 12 11 11 11 11 11 11 11
21 22 21 21 21 21 21 21 20 20 20 19 18 18 17 17 17 17 16 14 14 14 14 14 14 12 11 10 10 10 12 13 13 13 13 17 19 17 17 19 20 20 20 21 22 22 22 22 22 22 21 20 18 18 19 18 17 17 15 13 10 6 7 9 9 9 8 7 7 7 9 9 9 9 7 7 9 8 8 11 12 12 12 11 10 10 11 11
22 22 22 22 22 21 21 21 21 21 21 21 20 20 19 19 19 19 18 16 15 15 15 16 15 14 13 13 12 11 11 11 12 13 13 16 19 19 19 20 21 20 19 20 21 21 22 21 21 21 21 19 18 18 19 19 18 17 15 15 12 8 10 11 9 9 8 7 7 8 8 8 8 8 7 8 10 9 9 11 12 13 13 11 10 10 11 12
22 22 22 22 22 22 22 21 21 21 21 21 21 21 21 21 21 21 20 18 18 17 17 18 17 16 15 15 14 13 12 11 12 14 13 14 16 19 21 22 22 21 19 18 18 20 20 20 19 18 19 19 17 17 19 20 18 18 16 15 15 13 13 11 8 8 8 7 8 8 8 8 8 8 7 9 10 8 8 11 12 13 13 12 12 12 12 13
23 23 23 23 23 23 22 22 22 21 21 21 22 22 22 22 22 22 22 21 20 19 19 19 19 18 17 16 15 15 14 13 13 13 13 14 14 17 21 23 23 22 20 18 17 18 18 19 18 18 20 19 18 18 20 20 18 18 17 16 15 14 14 11 9 9 8 8 8 8 8 8 8 7 7 8 10 10 9 10 12 13 12 13 14 13 12 13
25 25 24 24 24 23 23 23 23 22 22 21 22 22 22 23 23 24 23 23 22 21 20 21 21 20 19 18 16 16 16 14 14 14 13 14 14 15 18 22 24 23 22 21 19 18 18 18 18 20 21 20 20 21 21 21 19 18 18 17 15 14 13 12 11 10 9 9 8 7 8 8 8 7 8 9 11 12 11 11 12 13 12 13 13 13 14 14
26 26 26 26 25 25 25 25 24 24 23 23 22 22 22 22 23 24 24 24 24 23 22 22 23 22 21 20 17 18 17 15 15 14 13 13 15 16 17 20 24 26 25 24 22 20 19 19 19 21 21 22 23 24 23 21 20 20 20 18 16 15 14 12 12 12 10 10 8 7 8 8 9 8 9 10 11 12 12 12 13 13 12 13 13 13 14 14
27 27 27 27 27 27 27 26 26 25 25 24 23 23 22 22 23 24 24 24 24 24 24 24 24 24 24 22 20 19 18 16 16 14 14 14 15 17 18 19 22 25 27 26 25 23 21 20 21 22 24 27 27 26 25 23 22 22 22 19 17 17 15 14 14 13 11 10 7 7 8 8 9 8 8 9 10 11 10 11 13 13 13 13 12 13 13 13
29 29 29 29 28 28 28 28 28 28 27 26 25 24 24 23 23 23 24 24 24 25 25 25 25 25 25 24 23 21 18 18 17 15 15 14 15 17 18 18 19 23 27 28 27 26 25 24 24 25 27 27 27 27 26 25 23 22 22 19 18 18 16 16 15 14 12 10 7 6 7 8 9 9 9 10 10 10 10 11 12 13 13 13 12 12 12 12
31 31 31 30 30 30 30 30 30 30 29 28 27 26 26 25 24 24 23 23 24 24 25 25 25 25 25 25 25 23 19 20 19 17 17 16 17 17 17 18 18 19 23 28 30 29 28 28 28 28 27 27 27 27 28 27 24 23 23 20 19 19 17 17 16 15 13 11 8 7 7 9 10 10 11 11 11 12 11 11 11 12 12 12 11 11 11 12
34 34 33 33 32 31 32 32 32 32 31 30 29 28 28 27 26 26 25 24 24 24 25 25 25 26 25 25 27 24 21 22 21 19 18 18 18 18 18 17 18 18 20 25 29 31 31 30 30 29 28 28 28 29 29 28 26 24 24 22 21 19 17 18 18 16 14 12 9 8 8 7 9 12 12 13 13 13 12 11 11 11 12 11 11 11 11 12
37 37 36 36 35 34 34 34 33 33 33 33 32 31 31 29 28 28 27 26 25 24 25 25 26 26 25 26 28 24 22 24 23 22 20 20 20 19 18 17 17 18 19 22 26 31 33 32 31 30 29 29 30 31 29 29 27 25 25 23 22 20 18 20 20 19 16 14 11 11 10 6 9 13 12 13 14 13 11 11 11 11 11 11 10 11 11 11
39 39 39 39 38 38 37 36 36 35 35 35 34 34 33 32 31 31 30 28 27 26 26 25 26 26 25 27 28 24 24 26 25 25 22 21 22 21 19 17 17 18 20 21 23 28 31 33 32 30 29 29 31 31 29 29 29 27 26 23 22 20 20 21 23 23 19 17 14 13 11 7 11 16 13 15 16 14 12 10 10 11 11 11 11 10 11 11
40 41 41 41 41 41 40 39 39 38 38 37 36 36 36 35 34 33 33 31 30 29 28 27 26 26 26 26 27 26 26 27 28 27 23 23 24 23 20 18 19 20 20 21 21 23 27 31 32 31 31 31 31 29 26 29 29 27 26 24 22 21 22 22 23 25 22 18 15 14 13 10 12 17 14 16 17 14 13 11 11 11 11 11 11 10 10 10
42 42 42 42 42 42 43 42 42 41 41 40 39 38 38 37 37 36 35 35 34 32 30 29 28 27 26 26 28 28 26 29 30 27 25 26 26 25 22 20 21 21 21 21 21 22 23 27 31 32 33 32 31 29 27 28 28 27 27 25 23 21 24 24 21 23 25 22 17 16 17 15 14 16 14 17 18 16 14 13 12 12 11 10 11 11 10 10
42 43 43 43 44 43 44 44 44 44 44 43 42 41 40 40 39 39 38 37 36 36 34 32 30 29 29 28 29 28 27 29 30 28 29 28 27 26 24 22 23 23 22 22 21 22 22 23 28 32 34 33 32 30 27 25 25 28 27 24 23 23 25 25 20 20 24 25 21 19 21 20 17 17 16 18 18 17 17 15 15 14 11 9 10 11 10 9
42 43 43 43 44 44 44 45 45 45 45 45 45 44 43 42 42 41 40 40 39 39 39 35 32 32 32 29 30 30 28 29 30 31 31 30 29 28 27 26 24 23 23 22 22 22 21 22 25 27 29 30 31 29 26 24 25 28 27 25 25 25 24 23 20 20 23 24 23 22 23 21 21 20 18 19 20 19 19 17 16 14 11 11 12 11 10 10
42 43 43 44 44 44 45 45 45 46 46 47 47 47 46 45 45 44 42 42 42 42 42 39 35 36 34 31 33 32 29 29 31 32 32 31 31 31 30 28 26 25 23 22 22 22 22 22 21 20 21 26 29 29 27 28 29 29 29 27 26 26 26 23 21 21 23 24 24 24 23 20 20 20 18 19 22 22 20 19 18 17 15 14 12 11 10 10
44 44 44 44 45 45 45 45 45 46 46 47 48 49 49 48 48 47 44 44 44 44 44 42 40 38 37 35 34 33 32 32 32 32 32 32 32 33 33 30 28 26 23 23 23 23 23 20 17 16 19 23 27 29 29 31 31 31 30 28 28 28 28 26 24 23 23 24 26 25 23 22 19 17 18 19 21 22 22 20 20 21 17 14 12 12 12 11
46 46 46 46 46 46 46 46 46 45 46 46 47 49 50 50 50 50 48 46 45 47 46 45 44 40 39 39 36 35 37 35 33 33 33 32 33 34 33 32 31 28 26 27 26 24 23 18 15 16 19 22 26 29 31 32 32 32 32 30 28 28 27 29 27 25 24 24 27 27 25 24 21 22 22 19 19 22 24 22 22 22 19 14 13 14 14 14
49 50 49 49 49 48 47 48 47 46 46 46 47 48 49 51 51 52 52 49 47 48 48 46 46 44 42 42 39 39 40 37 35 35 34 33 33 33 34 34 31 30 30 30 27 25 21 17 17 18 20 23 26 29 32 33 34 35 34 31 29 26 26 28 26 25 26 24 25 26 27 26 24 25 25 20 20 22 24 25 24 22 19 17 16 16 17 16
52 52 52 52 52 51 50 50 50 49 48 47 47 47 49 50 51 52 53 53 50 48 49 48 47 46 45 44 43 41 41 40 39 38 36 35 35 34 35 33 31 33 33 30 28 26 22 20 22 23 23 24 26 30 33 34 35 36 36 33 30 29 28 28 26 23 24 25 25 26 32 32 28 26 25 23 24 22 23 26 25 23 21 20 19 18 19 17
54 54 54 54 54 55 54 53 53 52 51 50 49 48 48 49 51 52 52 54 53 50 50 51 50 48 46 47 46 43 42 42 42 41 38 37 37 35 35 34 34 35 33 30 30 28 26 27 28 27 26 26 27 30 33 35 35 37 37 33 31 32 30 30 29 23 23 31 31 33 37 35 30 30 28 27 27 26 28 29 26 26 26 24 21 20 19 16
54 54 55 55 55 56 56 56 57 56 55 54 52 50 50 50 50 51 51 53 54 53 51 51 52 50 48 48 47 46 47 45 43 43 41 39 40 38 37 36 35 35 33 31 32 32 30 30 30 29 29 29 29 29 31 33 36 38 37 33 32 35 35 34 33 28 29 34 30 30 37 35 31 31 31 32 30 27 31 31 28 30 28 23 20 20 17 14
55 55 55 55 55 55 55 57 57 58 58 58 56 54 53 52 50 50 51 51 53 55 53 52 52 52 50 49 47 48 50 47 44 45 43 41 41 40 39 38 36 35 34 34 36 34 30 31 33 31 31 32 31 29 29 31 34 36 36 35 36 37 37 36 36 34 35 37 31 25 29 32 34 32 31 33 31 28 31 30 31 32 29 23 20 19 16 14
58 58 57 57 56 56 56 56 57 58 59 59 59 58 56 55 53 51 51 51 53 56 55 53 53 54 53 51 49 49 50 49 47 46 45 43 43 43 42 41 38 36 35 36 37 33 30 33 33 31 32 32 29 27 28 30 31 31 33 35 35 37 37 37 39 39 39 41 39 31 28 32 36 35 34 33 28 30 33 29 32 34 29 26 22 20 19 18
60 60 59 58 58 57 57 57 56 57 58 59 60 61 60 59 56 54 54 53 53 55 56 55 55 54 54 53 51 50 51 51 50 48 48 46 44 45 44 42 39 38 38 38 37 34 34 35 33 31 33 32 28 28 30 31 30 29 31 34 37 40 40 40 42 41 41 44 42 37 36 37 36 33 36 37 31 34 35 27 31 36 30 28 24 22 23 21
59 59 59 59 58 57 57 57 57 57 58 59 59 61 62 61 59 58 57 55 53 55 56 56 56 55 53 53 51 51 51 53 53 51 49 48 46 46 46 45 43 42 41 41 40 38 38 37 35 35 35 32 31 33 35 33 30 31 33 36 39 40 40 42 42 42 46 48 44 39 39 41 39 31 33 38 36 38 38 29 28 33 30 28 28 25 23 21
57 58 58 58 58 57 56 56 56 56 56 57 59 61 61 61 62 60 59 57 54 54 56 57 58 56 54 53 52 52 52 53 54 52 51 51 49 48 50 49 49 48 45 45 43 41 40 40 39 38 36 35 37 39 38 35 33 34 37 38 37 36 39 41 42 45 47 46 43 40 40 43 38 30 32 37 38 37 38 35 30 30 29 29 29 27 24 22
54 55 56 56 56 56 55 54 54 54 55 55 57 59 60 61 62 61 59 54 51 54 59 61 60 57 55 54 53 52 52 52 54 54 53 53 52 51 51 49 49 49 47 45 43 41 41 40 39 40 38 37 41 41 39 38 37 37 39 38 36 36 40 43 44 46 42 40 41 40 42 41 31 25 30 35 36 34 35 37 33 29 30 30 30 29 25 22
54 55 56 55 54 55 54 53 51 51 51 52 53 55 58 60 60 59 53 48 52 61 64 63 61 58 56 52 50 50 50 49 52 54 54 54 53 52 51 49 48 48 46 44 44 44 43 42 42 43 41 40 42 43 41 40 40 40 41 38 35 36 40 42 43 41 38 37 40 41 43 38 28 26 28 29 34 37 37 38 35 33 32 30 32 32 26 24
56 57 59 58 54 52 52 51 50 48 47 48 49 49 52 56 58 53 46 49 62 69 67 64 61 59 56 52 50 51 52 50 51 53 54 54 55 54 54 52 51 49 47 46 47 47 47 47 45 43 40 41 44 42 39 40 40 40 40 37 34 35 36 37 37 36 35 36 39 42 39 30 25 27 26 25 30 32 33 35 35 37 36 32 34 34 29 28
56 57 61 61 54 51 49 48 46 45 43 43 44 44 46 49 49 44 45 58 69 70 68 65 61 59 56 52 51 52 52 52 52 54 54 54 55 55 54 53 52 51 49 49 49 48 48 46 41 39 38 39 43 43 39 40 41 39 40 38 34 32 33 34 35 35 35 36 38 39 30 23 26 30 26 26 27 26 27 31 34 38 39 35 33 33 31 30
55 56 60 62 56 50 48 46 43 40 38 37 38 40 39 37 37 42 54 66 70 71 67 61 57 56 52 47 48 53 51 49 53 56 55 55 53 53 54 53 53 53 52 51 50 49 50 47 42 41 41 40 42 43 41 40 39 38 39 36 30 29 33 36 35 33 33 35 37 34 26 21 25 25 22 22 24 25 26 29 33 37 40 37 32 32 34 31
56 55 58 60 55 49 46 43 38 35 33 33 33 34 32 30 33 45 58 64 67 69 62 55 55 56 52 43 38 49 55 52 55 56 54 54 52 51 53 53 53 55 54 52 51 51 51 47 46 47 44 42 43 42 42 42 39 39 38 31 30 34 37 37 34 33 36 36 35 33 28 24 21 19 18 17 19 24 26 28 33 36 39 39 34 33 33 29
56 56 57 59 54 48 44 39 35 34 31 28 27 27 28 32 38 47 57 60 61 61 56 53 55 55 55 48 35 43 57 55 53 54 52 53 55 55 55 55 57 59 57 56 55 55 53 46 45 50 48 43 43 43 45 45 42 41 39 34 35 38 37 36 36 37 38 37 33 31 31 28 20 14 15 16 18 23 26 30 34 36 38 39 36 35 33 27
56 57 57 58 54 47 42 38 35 33 26 21 20 22 26 32 39 46 52 52 52 55 52 52 56 54 55 55 47 49 60 59 57 58 51 44 49 57 59 60 62 62 61 61 60 58 57 48 39 45 53 48 43 46 48 48 45 43 44 41 38 38 36 35 36 35 35 34 30 28 29 27 20 14 15 18 20 24 29 32 35 37 39 39 38 37 35 30
54 55 56 56 52 46 42 38 33 28 22 19 19 23 27 30 33 38 41 42 46 52 52 52 58 59 57 60 60 60 63 63 63 65 57 44 46 57 62 63 63 62 60 61 60 56 57 53 37 34 51 53 47 49 49 47 48 46 46 47 43 41 39 36 36 35 33 33 30 25 19 16 18 19 19 19 21 25 30 33 36 37 39 40 39 38 35 31
52 53 54 53 49 44 40 35 30 26 23 21 20 22 25 27 30 32 34 37 40 45 49 50 54 61 62 63 68 69 65 64 66 67 62 55 57 64 66 66 65 62 58 58 60 58 57 58 45 32 49 57 50 48 48 47 48 47 47 47 45 43 41 40 38 35 33 32 31 28 18 10 14 18 19 20 24 27 30 33 36 38 40 42 41 39 34 31
50 51 51 49 46 42 37 33 29 26 22 20 21 23 23 24 27 30 31 32 32 34 40 46 49 56 61 64 70 71 66 65 68 68 65 62 65 70 70 69 68 64 61 58 59 60 60 63 54 37 41 54 54 49 49 49 49 49 49 48 46 44 42 42 40 35 33 32 31 31 25 19 16 15 18 22 26 29 32 35 37 39 41 42 41 40 37 33
48 50 49 46 44 40 34 31 29 25 22 21 20 23 25 24 25 26 25 25 28 28 29 36 43 52 59 64 69 71 66 65 69 70 68 67 69 72 71 70 70 67 64 62 59 61 63 65 63 45 29 39 52 52 50 51 51 52 53 50 48 45 42 42 41 38 36 33 30 30 27 24 18 16 19 23 25 31 35 37 39 40 41 42 41 41 40 37
47 48 47 44 42 38 32 29 27 24 22 22 19 17 22 24 23 23 21 19 21 22 22 27 36 46 55 61 68 72 68 66 69 68 65 69 73 74 72 71 71 69 67 66 65 67 67 66 68 58 35 30 45 53 54 56 55 55 55 52 49 46 43 44 43 41 39 34 31 30 27 26 21 19 23 22 22 30 35 37 39 40 41 42 42 43 43 39
46 46 44 42 41 37 32 28 25 23 22 21 20 16 16 20 22 21 20 18 17 17 18 22 29 37 45 52 61 70 68 66 69 67 63 67 74 76 74 72 72 71 69 68 67 69 71 69 68 67 55 45 48 54 57 58 57 56 55 53 51 47 46 46 44 42 40 36 34 32 29 27 23 23 24 20 19 26 32 36 40 41 42 43 44 46 44 38
45 44 41 40 38 35 31 28 24 23 22 19 19 17 15 16 18 18 18 19 19 18 18 19 22 28 35 42 51 62 67 66 66 66 66 68 73 78 78 74 72 72 69 67 68 68 70 71 68 67 65 56 51 52 54 54 57 58 56 55 53 49 48 48 45 43 41 39 37 34 31 31 27 26 25 20 19 24 29 35 40 43 45 46 46 45 43 39
44 42 40 37 36 33 31 27 24 23 22 18 18 17 16 15 16 16 17 19 21 21 21 21 20 22 26 33 41 51 63 68 65 65 68 71 76 81 80 75 73 72 69 68 69 69 69 70 68 66 66 60 53 54 57 57 58 59 57 57 56 52 51 51 48 45 43 40 39 36 34 34 30 27 27 23 22 25 28 31 37 42 46 47 46 44 42 41
43 41 39 37 35 33 30 27 25 23 21 18 17 17 16 15 15 16 17 19 20 21 23 23 21 21 23 27 34 42 53 65 68 67 70 76 81 82 79 76 75 74 72 71 71 71 70 69 67 66 67 66 61 60 62 60 60 60 59 59 57 54 54 53 50 47 45 43 41 38 36 36 32 27 26 23 24 26 27 29 34 41 45 46 46 44 44 43
41 39 37 36 34 32 29 28 26 23 20 18 17 17 15 14 14 15 16 17 19 20 22 23 23 23 24 25 29 35 43 57 68 69 71 77 82 82 78 75 74 75 75 73 73 73 70 69 69 67 66 68 68 67 66 64 63 62 62 61 59 57 55 54 51 49 47 44 42 40 37 36 36 31 24 22 27 30 30 32 35 39 42 44 44 44 44 43
38 38 35 33 32 31 28 27 25 23 20 19 18 17 16 15 14 14 14 14 16 18 20 22 23 23 24 24 25 30 38 51 64 71 72 74 79 82 78 74 76 80 78 75 74 73 70 70 71 70 69 70 71 71 69 67 65 64 62 61 60 58 57 55 53 51 48 46 44 42 39 37 37 35 28 26 30 33 31 31 32 34 38 41 42 43 43 44
36 37 34 31 30 29 27 25 24 22 21 19 18 17 16 15 15 14 14 14 14 16 17 19 21 22 23 23 23 27 36 46 58 70 74 73 76 80 79 77 80 82 79 76 74 72 71 72 72 72 72 71 71 71 69 67 66 65 64 63 62 60 59 57 54 52 50 48 46 44 40 38 38 37 31 30 32 31 28 27 28 31 35 38 41 43 44 46
35 36 34 30 29 28 26 24 23 22 21 20 18 16 16 16 16 15 14 14 14 15 15 16 18 20 21 22 23 25 32 41 52 64 73 75 76 78 78 78 80 80 79 79 78 74 74 74 73 74 73 71 70 70 68 68 70 68 65 63 63 62 60 58 57 55 52 50 48 44 41 39 39 37 33 32 32 28 24 24 27 28 30 34 38 40 42 44
Wind_Direction
297 297 297 297 298 298 298 298 297 296 294 292 292 290 288 285 281 277 274 273 273 274 272 265 257 250 245 244 246 243 235 228 224 222 224 220 212 216 215 212 210 210 220 226 227 227 225 223 220 216 209 204 205 213 221 229 234 235 236 227 223 229 199 185 178 210 248 265 278 291 295 289 286 284 277 263 253 251 249 242 237 233 228 226 215 203 196 186
294 294 294 295 295 295 295 295 294 294 292 291 290 289 287 285 281 279 276 273 270 270 268 266 263 258 251 244 244 244 242 235 227 226 227 220 214 214 206 204 206 205 211 216 218 221 220 219 218 216 209 204 204 209 216 225 232 231 232 226 223 243 246 209 204 228 248 268 282 284 294 286 279 284 279 264 253 249 250 248 241 234 231 227 213 203 201 194
292 292 292 292 292 292 292 291 291 290 288 288 287 286 285 284 282 280 278 275 272 270 267 265 263 261 258 251 246 245 246 243 235 233 228 220 218 213 203 204 207 208 208 208 210 211 213 214 215 214 210 205 204 207 212 220 229 229 232 227 220 247 274 235 234 246 249 257 268 280 292 287 286 292 282 264 257 250 248 250 243 234 230 226 215 205 202 201
291 291 291 290 290 290 289 289 288 287 286 284 283 281 280 280 281 280 279 277 274 271 270 267 264 261 259 255 252 248 247 248 244 241 229 220 220 214 206 206 212 215 212 211 211 209 210 212 213 213 210 206 204 207 210 215 225 230 231 223 217 244 244 228 234 244 248 251 264 280 287 291 297 298 285 262 254 244 241 248 245 237 231 225 215 209 205 204
289 289 289 289 289 288 288 287 285 285 284 282 281 278 277 276 276 278 278 277 274 271 270 269 267 264 260 257 254 252 250 251 249 245 233 224 222 217 210 208 214 220 220 219 217 214 212 211 212 213 209 206 204 207 210 214 221 228 229 224 229 235 221 221 231 239 245 252 264 275 281 287 292 295 283 258 247 234 232 243 244 240 234 222 212 208 207 206
286 286 287 287 288 288 287 286 284 283 282 280 279 276 275 273 273 274 274 274 272 270 269 268 267 265 263 259 256 254 252 250 249 246 240 231 224 221 216 212 215 221 225 224 221 219 217 213 212 210 208 203 201 206 213 216 219 224 226 225 230 233 229 229 228 237 245 252 261 268 274 281 287 287 270 253 247 241 243 244 239 237 235 222 208 201 204 208
284 284 284 285 285 285 285 285 284 283 282 279 278 276 274 272 270 271 270 270 269 268 267 266 265 265 263 261 258 257 253 249 248 246 241 237 229 224 221 217 215 219 224 226 223 219 219 218 213 209 207 202 198 204 214 218 218 221 224 223 224 227 233 232 225 234 242 249 259 265 271 276 278 272 256 247 243 244 252 248 239 235 231 222 208 196 200 209
284 283 282 282 282 283 282 282 282 282 281 280 278 276 274 271 269 268 267 267 267 266 263 263 263 263 262 260 259 258 256 250 247 244 242 241 235 226 223 220 216 217 220 225 225 219 216 215 212 210 207 202 200 205 213 217 217 221 223 221 222 224 225 222 221 227 232 242 250 260 268 267 266 260 249 246 240 242 250 251 247 240 229 222 210 197 201 211
283 282 281 281 280 280 280 279 279 279 279 279 278 277 275 273 270 268 266 265 264 264 262 261 260 261 261 260 258 258 258 253 248 244 238 237 236 229 223 220 217 216 217 220 223 221 215 210 209 209 205 204 204 206 212 215 216 221 224 220 217 220 218 213 218 223 229 239 243 252 259 259 262 256 249 250 245 246 250 249 248 245 233 222 212 204 206 212
282 281 280 280 279 279 278 277 276 275 275 275 275 275 275 274 272 269 267 265 263 262 260 259 258 258 259 259 257 257 257 256 250 243 236 230 232 234 229 223 218 216 215 217 221 223 220 211 209 209 207 207 207 207 211 214 215 220 223 219 215 216 213 210 216 222 229 235 237 249 257 260 260 255 249 251 248 245 249 247 243 240 234 224 213 209 209 211
280 280 279 278 278 277 277 276 275 274 272 272 272 272 272 272 272 271 269 267 264 261 259 257 256 256 256 257 257 254 253 255 252 244 238 228 227 233 234 230 223 218 216 216 218 221 221 215 211 213 212 211 211 211 212 214 217 220 222 219 215 215 213 212 215 220 224 227 232 245 254 258 257 254 248 246 245 239 236 239 238 235 233 226 217 210 208 208
279 278 277 276 275 275 274 274 273 273 272 270 269 268 268 268 269 270 270 269 266 263 260 257 255 254 254 255 255 251 249 252 252 245 240 233 229 228 231 233 230 224 219 217 217 218 220 217 214 216 216 215 213 213 214 216 218 219 221 219 215 214 211 210 213 218 220 222 231 238 242 253 253 248 246 244 241 233 225 225 227 229 231 228 222 215 207 203
280 278 277 275 274 273 272 271 271 271 270 270 268 267 266 265 265 266 267 267 267 265 263 259 256 253 252 252 252 249 247 249 249 245 241 238 236 228 226 230 231 230 224 220 218 218 220 218 218 219 218 216 214 217 218 218 220 219 220 219 215 212 205 205 213 218 220 222 228 230 229 247 253 241 236 237 236 231 223 219 219 219 223 226 224 218 207 202
280 279 278 276 275 273 271 270 269 268 267 267 267 266 265 263 262 262 263 264 264 265 264 262 258 254 252 250 250 248 247 247 247 245 241 239 239 233 228 226 228 231 229 224 220 220 222 221 220 219 221 219 217 221 220 219 222 221 222 221 216 210 198 201 213 215 217 221 219 225 224 229 255 243 228 230 232 227 218 215 217 215 216 218 219 215 204 199
279 278 277 276 275 274 272 270 269 267 266 265 264 264 263 262 261 260 260 260 261 262 262 262 260 257 253 251 251 247 244 246 246 244 240 238 241 239 232 226 223 226 229 228 224 223 224 225 224 221 224 222 221 224 220 218 223 220 222 223 218 210 196 200 213 213 213 216 212 220 216 200 249 250 233 229 231 225 218 215 216 212 212 212 210 210 202 200
279 277 276 275 274 273 272 271 269 268 266 264 262 261 261 260 260 258 258 258 258 259 259 259 259 258 254 253 252 246 241 243 244 242 240 238 240 241 235 226 222 222 226 231 229 227 225 226 226 224 225 225 225 228 221 220 224 222 223 222 216 212 203 204 216 215 212 216 214 217 214 196 229 246 240 233 235 234 225 216 219 216 209 209 209 206 199 201
280 278 276 275 273 272 271 270 269 268 267 265 263 261 259 258 257 257 256 256 256 257 258 257 257 257 255 252 251 246 241 242 243 242 241 239 238 239 236 227 224 223 224 227 229 231 228 225 225 224 225 226 228 229 221 221 225 224 225 223 215 212 210 211 219 218 214 220 219 214 219 212 223 246 245 234 239 242 233 222 224 223 208 203 211 208 195 194
282 279 277 275 273 272 270 269 268 266 266 265 263 262 260 258 256 255 254 254 254 255 256 255 255 254 252 251 252 249 242 241 243 242 240 239 238 239 237 231 227 225 224 224 226 230 230 227 225 223 224 225 226 227 224 225 227 226 228 225 218 215 215 216 221 223 218 219 220 215 221 222 227 245 242 231 239 243 241 237 229 227 220 213 213 208 195 187
284 282 280 277 275 273 271 269 267 265 264 263 262 261 260 259 257 255 254 253 253 253 254 254 254 252 250 249 250 249 244 242 242 241 240 239 238 239 238 234 230 228 227 225 225 228 229 228 227 227 227 225 223 224 225 227 227 227 231 229 223 219 218 218 218 225 225 220 222 218 218 226 230 236 236 228 234 237 238 243 242 236 226 217 215 210 198 185
286 283 282 280 277 275 273 270 268 266 264 262 261 260 258 257 257 255 253 253 252 251 252 252 252 252 250 246 246 248 246 242 241 240 239 237 237 238 238 236 234 231 229 228 226 225 227 229 230 231 231 228 223 222 223 225 225 225 228 229 226 222 220 221 214 217 226 220 220 218 213 224 232 239 250 235 227 233 235 238 244 241 222 210 213 213 209 193
285 284 282 281 279 277 275 273 270 268 265 262 261 260 258 256 255 254 252 251 252 251 251 251 250 250 251 248 245 246 244 242 241 240 240 238 236 237 238 238 237 235 232 230 226 223 224 225 228 228 226 224 221 221 221 223 225 225 227 227 226 224 220 226 220 212 224 219 213 214 211 221 229 235 250 243 229 230 234 234 238 243 235 220 211 211 219 208
285 284 282 281 279 278 276 274 272 270 267 264 262 260 258 256 255 254 251 249 250 250 250 250 250 249 249 248 244 242 242 241 240 240 240 238 236 236 238 239 238 237 233 231 226 225 224 222 226 224 219 217 215 216 218 220 224 225 228 226 225 226 220 226 227 218 228 223 210 213 215 219 229 229 231 239 238 229 231 236 236 238 238 227 214 212 222 217
286 284 282 280 279 277 276 275 273 271 269 267 264 261 259 257 255 253 252 248 247 249 249 248 249 248 246 246 244 241 242 242 240 239 239 239 237 236 237 238 238 237 234 232 230 227 223 217 222 219 215 215 211 212 215 217 220 221 225 224 221 225 220 222 227 223 228 221 207 219 227 224 229 236 232 232 239 230 228 237 235 233 235 234 227 218 219 216
285 284 282 280 279 277 275 274 273 271 269 267 265 263 261 259 256 253 252 249 246 247 248 246 246 246 245 244 243 241 242 241 240 238 236 238 238 236 236 237 236 236 235 233 232 228 220 213 217 215 214 215 211 210 211 213 216 219 222 219 216 219 217 216 221 228 239 234 218 223 234 231 225 232 235 231 239 240 234 237 238 231 228 232 234 228 222 216
286 284 282 280 278 277 275 273 272 270 269 267 265 264 262 260 258 255 253 250 246 245 246 246 245 244 243 243 243 242 241 240 239 238 235 236 238 236 236 235 234 235 234 232 232 227 220 218 219 218 216 216 214 212 211 212 214 218 220 217 215 218 216 215 213 214 235 241 233 226 230 231 224 226 232 232 239 247 240 236 239 235 228 224 228 230 222 214
288 285 282 280 278 276 275 272 271 269 268 266 264 263 261 260 259 257 254 252 248 245 244 245 244 242 241 242 242 241 240 238 238 238 235 233 235 235 234 234 233 234 234 232 232 228 221 221 221 220 220 219 218 216 214 215 214 218 220 215 216 218 217 217 213 209 223 235 236 231 231 232 228 228 233 232 233 240 239 233 234 239 237 231 230 232 222 209
291 288 285 282 278 276 274 271 270 268 266 265 264 261 260 258 258 257 256 254 251 246 243 242 243 242 241 239 239 239 239 238 236 238 237 233 234 235 234 234 233 233 233 231 232 230 223 224 224 220 221 221 221 220 219 219 219 221 221 215 214 217 217 216 216 215 223 232 234 230 233 237 234 229 233 235 230 233 240 231 227 236 240 235 228 229 230 217
295 292 289 285 281 277 274 271 268 266 264 263 262 260 259 257 256 255 254 254 253 248 245 243 240 240 240 238 236 237 238 238 236 237 237 233 232 233 234 234 233 232 233 233 234 232 226 228 228 223 223 224 223 223 223 224 225 225 223 217 213 216 218 218 220 221 225 233 235 227 226 235 234 225 226 229 220 226 238 228 222 233 237 234 224 218 224 221
299 297 294 291 286 282 277 272 268 265 262 260 259 258 257 256 254 253 252 251 252 250 247 244 241 238 238 238 236 234 235 236 235 234 234 233 230 231 233 233 232 230 230 232 233 230 227 228 228 224 224 224 222 223 224 223 222 223 222 218 214 215 215 216 221 224 228 234 234 227 225 232 237 227 223 227 217 221 235 229 221 228 233 235 228 217 217 218
304 302 299 296 292 287 282 276 270 265 261 258 256 255 254 254 252 251 250 248 249 249 246 245 242 238 236 236 235 233 233 234 235 233 233 233 229 229 231 230 229 228 226 229 229 227 225 224 224 223 221 219 219 220 222 220 217 218 220 219 217 217 215 216 220 222 228 233 231 226 225 230 237 228 218 226 226 228 239 241 230 229 232 236 231 220 218 218
311 309 305 302 299 294 289 284 277 270 264 258 254 251 250 250 249 248 247 246 245 246 245 244 242 239 235 234 233 232 231 231 233 232 231 231 229 226 228 227 226 226 224 226 227 226 226 224 222 223 219 216 218 219 219 218 215 215 219 220 219 218 216 218 221 222 229 237 234 228 227 230 236 230 216 223 229 235 245 246 237 232 231 235 233 225 220 219
322 320 315 310 306 301 296 291 284 277 270 262 256 251 247 245 245 244 244 243 241 240 240 241 240 238 236 234 232 232 230 229 230 231 230 230 229 227 229 229 229 229 228 228 228 227 229 227 225 226 222 218 221 221 219 217 215 216 219 220 217 215 215 217 221 226 234 242 239 232 230 234 242 241 228 226 226 230 239 243 239 235 232 230 231 225 218 220
334 332 327 320 313 308 303 297 291 285 277 269 262 254 248 244 242 240 239 236 235 236 237 238 238 238 236 234 233 231 230 228 228 229 229 229 228 227 228 228 228 230 231 230 229 228 229 227 224 225 222 220 224 225 222 220 218 219 221 221 218 216 218 221 223 229 237 243 242 236 234 241 251 249 241 234 229 229 236 244 240 235 234 226 222 223 218 218
337 337 336 329 320 312 307 302 297 291 284 276 268 260 252 246 241 239 235 231 232 235 235 235 236 236 236 233 230 229 227 225 224 226 227 227 227 226 225 225 224 225 226 227 227 227 228 228 226 226 223 222 228 229 226 226 223 222 225 224 222 221 223 227 229 233 239 241 243 241 239 247 254 250 247 241 236 235 238 243 239 231 232 226 217 219 218 216
336 337 337 334 326 316 311 307 301 295 288 279 271 265 257 250 245 241 234 230 231 232 232 233 234 234 234 232 231 229 227 225 223 223 224 225 226 226 225 224 223 222 222 223 225 227 229 231 230 230 227 224 230 231 228 228 227 224 226 225 223 224 226 230 231 234 239 240 244 248 248 251 253 250 247 240 236 236 234 239 240 233 233 232 222 220 222 220
335 336 336 335 330 322 316 312 305 298 289 280 272 265 259 253 248 240 233 230 229 229 227 227 227 229 229 227 229 229 225 223 223 222 222 222 223 225 224 223 222 221 220 220 223 225 227 228 227 226 224 221 226 231 230 230 230 227 228 228 225 225 226 229 231 234 237 237 240 247 251 247 246 247 243 236 235 234 228 230 235 233 233 235 229 226 228 223
335 336 336 335 333 326 321 316 309 301 292 282 273 265 257 247 242 240 236 231 228 227 223 218 218 222 219 212 219 227 221 218 221 221 220 221 220 222 222 220 220 220 219 218 219 223 225 226 226 224 220 218 220 225 229 229 229 230 230 228 223 223 224 226 227 231 235 236 236 241 249 248 240 241 239 231 231 232 225 222 228 230 230 232 229 226 227 222
334 336 336 337 336 330 325 321 312 306 297 284 274 267 257 245 241 243 240 234 230 227 222 215 213 216 212 199 199 221 219 213 216 218 218 221 220 219 218 217 216 215 215 215 215 219 220 220 225 226 221 217 217 219 224 225 223 226 228 224 221 223 224 224 224 225 230 235 236 237 245 248 241 237 233 222 220 221 216 215 220 223 223 227 229 229 229 226
335 336 338 339 338 333 329 325 318 314 304 280 261 255 252 247 244 246 247 241 235 231 224 215 211 210 208 197 194 214 214 206 209 211 210 216 221 220 218 217 215 213 211 213 213 216 219 217 220 229 225 217 215 216 221 224 219 220 225 222 219 221 223 225 226 227 229 234 237 238 243 249 246 235 223 216 212 209 208 212 216 218 220 223 227 230 230 229
336 337 338 340 339 335 332 329 326 324 309 276 251 242 245 249 250 252 253 247 239 233 227 218 211 208 205 197 198 211 212 203 206 208 203 202 212 216 218 218 218 215 212 213 214 213 217 216 210 228 230 218 214 218 220 224 222 218 223 222 217 217 219 222 224 225 227 231 234 236 240 256 254 234 220 215 208 202 204 211 214 215 218 222 225 228 228 227
337 337 338 341 342 336 333 332 330 328 311 283 259 248 247 250 253 256 255 248 240 234 229 223 215 210 206 200 201 210 209 202 204 207 202 200 207 211 213 215 216 216 212 213 214 210 214 215 203 217 232 219 212 218 219 224 225 221 224 225 220 217 217 220 222 221 222 225 228 226 217 226 239 221 210 210 204 198 200 206 210 212 215 219 223 226 225 223
338 338 338 342 342 337 335 334 331 329 320 294 270 261 257 252 252 256 257 252 246 239 232 226 219 214 210 204 205 208 208 202 202 204 201 201 209 212 212 213 213 214 210 209 213 210 213 216 205 206 231 223 213 215 215 220 226 223 224 225 223 220 218 221 224 223 222 221 224 225 217 214 215 197 198 207 200 197 201 204 207 210 215 218 220 223 226 226
339 339 337 341 343 340 337 335 332 330 327 313 288 268 261 256 254 256 256 252 247 243 238 229 221 217 213 210 208 208 207 202 200 203 202 202 210 214 213 213 212 213 209 205 209 211 213 218 211 203 220 226 218 217 214 215 223 224 223 223 222 220 219 223 224 225 226 222 222 227 223 219 212 185 189 200 197 197 201 205 208 212 216 219 221 223 227 230
340 339 338 342 345 342 337 334 333 329 326 325 316 286 264 258 257 256 252 247 242 238 238 233 223 217 216 215 213 210 207 202 198 199 201 204 210 213 213 213 213 212 210 205 206 208 209 214 214 207 206 216 218 218 215 213 217 223 223 222 222 220 218 221 223 223 226 223 222 226 226 227 217 188 181 189 196 200 201 203 208 211 214 217 220 223 227 230
341 340 339 342 346 345 339 333 332 329 327 328 327 312 279 258 252 251 248 246 244 237 237 237 226 218 218 218 217 214 209 204 198 195 196 203 210 212 211 212 213 213 211 207 206 208 208 210 212 210 210 215 217 218 218 216 216 221 224 223 221 219 218 220 221 222 224 223 221 222 224 229 218 190 182 186 198 206 204 204 206 208 212 215 218 222 226 228
341 341 340 342 346 346 342 335 330 329 328 326 325 322 305 276 257 250 247 243 242 241 242 241 228 219 219 218 219 217 211 205 200 196 196 202 208 211 210 210 212 213 212 210 208 208 209 210 211 209 210 214 219 220 220 219 218 219 223 225 222 219 220 221 220 221 222 222 221 217 219 226 216 193 189 195 201 209 209 207 208 209 211 216 222 225 226 226
340 342 340 342 347 348 345 339 331 329 328 324 323 321 314 301 279 263 254 245 240 239 240 242 232 221 220 218 218 218 213 206 202 200 199 202 207 210 209 208 209 212 212 211 210 209 209 211 212 210 207 207 214 219 220 219 218 218 222 226 225 220 220 222 222 221 222 223 223 219 218 224 220 199 191 197 205 212 213 211 213 213 214 219 226 228 227 226
338 341 341 343 347 349 348 342 334 331 328 322 321 319 313 307 295 281 271 258 251 245 240 242 239 229 224 221 218 218 214 208 204 203 203 204 206 209 209 208 208 210 211 211 210 209 209 210 212 212 209 206 208 214 218 218 218 217 219 223 226 224 222 223 223 223 224 224 225 223 219 222 226 210 193 199 214 216 211 210 215 218 219 221 225 227 226 227
335 340 343 343 347 350 349 344 338 333 329 324 322 321 316 310 301 292 284 272 263 256 246 243 242 235 229 226 220 216 214 209 207 207 207 207 207 207 208 208 208 209 211 211 210 209 207 208 211 212 210 210 211 213 215 216 217 217 217 220 223 225 225 225 225 225 226 226 226 227 222 220 225 219 201 202 218 219 210 210 217 220 220 221 224 226 226 226
332 337 343 343 346 351 350 346 341 333 329 328 325 322 318 312 306 299 294 284 271 265 257 247 243 240 235 231 224 218 214 211 208 208 209 209 208 207 207 207 207 207 208 210 210 209 208 209 211 211 209 210 213 215 216 217 217 217 218 219 221 223 224 225 226 225 226 226 225 227 225 222 222 222 211 206 215 219 214 214 219 220 219 220 221 222 224 225
329 333 342 344 346 352 352 347 344 335 329 327 324 322 317 309 306 304 299 293 282 274 269 258 250 245 238 233 230 223 218 213 209 208 210 210 209 209 208 208 208 207 207 208 210 209 209 209 209 211 211 210 212 216 218 220 220 218 218 219 220 222 223 224 225 225 225 226 226 225 225 224 222 221 215 210 213 215 213 211 215 219 223 224 222 221 222 225
331 330 339 345 346 351 353 348 345 339 331 326 321 320 317 307 304 306 302 299 294 284 278 271 261 252 241 233 231 228 221 215 211 210 211 211 211 210 209 208 209 208 207 208 208 208 209 209 208 210 212 211 212 214 216 220 223 220 219 220 221 222 223 224 225 225 224 225 225 223 223 225 225 221 215 209 206 206 208 213 216 219 223 225 226 226 226 227
Height
5885 5885 5884 5884 5883 5883 5883 5883 5882 5882 5882 5882 5882 5882 5881 5881 5881 5880 5880 5880 5880 5880 5880 5880 5880 5880 5880 5880 5879 5880 5880 5881 5882 5882 5883 5885 5886 5886 5887 5888 5888 5889 5889 5890 5891 5892 5893 5893 5894 5895 5896 5896 5896 5897 5897 5897 5897 5898 5899 5900 5900 5900 5900 5899 5899 5901 5900 5899 5899 5899 5899 5899 5898 5899 5899 5900 5900 5900 5900 5900 5900 5900 5901 5901 5902 5902 5903 5903
5884 5883 5882 5882 5882 5882 5881 5881 5881 5880 5880 5880 5880 5880 5880 5879 5879 5879 5879 5879 5879 5879 5879 5879 5879 5879 5879 5879 5879 5878 5879 5879 5880 5881 5882 5883 5884 5885 5886 5886 5887 5887 5887 5889 5890 5890 5891 5892 5893 5894 5895 5895 5896 5896 5896 5897 5897 5898 5899 5899 5900 5900 5899 5899 5899 5900 5900 5899 5899 5899 5899 5898 5898 5898 5899 5899 5899 5900 5900 5900 5900 5900 5900 5900 5901 5902 5902 5903
5882 5881 5881 5881 5880 5880 5880 5879 5879 5879 5878 5878 5878 5878 5878 5877 5877 5877 5878 5878 5878 5878 5877 5877 5877 5877 5878 5878 5878 5877 5877 5878 5878 5879 5880 5882 5882 5883 5884 5885 5885 5885 5886 5887 5887 5888 5889 5890 5891 5892 5893 5894 5895 5895 5896 5896 5897 5897 5898 5899 5900 5899 5898 5899 5899 5900 5900 5900 5899 5899 5899 5898 5898 5898 5899 5899 5899 5899 5900 5900 5899 5900 5900 5899 5899 5900 5901 5902
5880 5880 5879 5879 5878 5878 5878 5877 5877 5877 5877 5876 5876 5876 5876 5875 5875 5875 5876 5876 5876 5876 5876 5876 5876 5876 5876 5876 5876 5876 5876 5877 5877 5878 5879 5880 5880 5882 5883 5883 5883 5884 5885 5885 5885 5886 5887 5888 5890 5891 5892 5893 5894 5894 5895 5896 5896 5897 5897 5899 5899 5898 5898 5899 5899 5900 5900 5900 5900 5900 5900 5899 5898 5899 5899 5900 5899 5899 5899 5899 5899 5899 5899 5899 5899 5899 5900 5902
5878 5878 5877 5877 5876 5876 5876 5876 5875 5875 5875 5874 5874 5874 5874 5874 5873 5873 5873 5874 5874 5874 5874 5874 5874 5874 5875 5875 5875 5875 5875 5875 5876 5876 5877 5878 5878 5880 5881 5881 5881 5882 5883 5884 5885 5886 5886 5888 5889 5890 5891 5893 5894 5894 5895 5895 5896 5896 5897 5898 5898 5898 5898 5898 5899 5900 5900 5900 5900 5900 5900 5899 5899 5899 5899 5900 5899 5899 5899 5899 5898 5899 5899 5899 5898 5898 5900 5901
5876 5875 5875 5875 5874 5874 5874 5873 5873 5873 5873 5872 5872 5872 5872 5872 5871 5871 5871 5872 5872 5872 5872 5872 5872 5872 5873 5873 5873 5873 5873 5874 5874 5874 5875 5876 5877 5878 5879 5879 5880 5881 5882 5883 5884 5885 5886 5887 5888 5889 5891 5892 5893 5894 5894 5894 5895 5896 5896 5897 5897 5898 5898 5897 5899 5899 5899 5900 5900 5900 5900 5900 5900 5900 5900 5900 5899 5899 5899 5899 5898 5898 5899 5899 5898 5899 5900 5901
5874 5873 5873 5872 5872 5872 5871 5871 5871 5871 5870 5870 5870 5870 5870 5869 5869 5869 5869 5869 5869 5870 5870 5870 5870 5870 5871 5871 5872 5872 5872 5872 5872 5872 5873 5874 5875 5876 5877 5878 5879 5880 5881 5881 5882 5884 5885 5886 5887 5889 5890 5891 5892 5893 5893 5893 5894 5895 5895 5896 5897 5897 5897 5897 5898 5899 5899 5900 5900 5900 5900 5900 5900 5900 5900 5900 5900 5899 5899 5899 5898 5898 5898 5898 5898 5898 5899 5899
5871 5870 5870 5870 5870 5869 5869 5868 5868 5868 5868 5868 5867 5867 5867 5867 5867 5867 5867 5867 5867 5867 5868 5868 5868 5868 5868 5869 5870 5870 5870 5871 5870 5871 5872 5872 5873 5874 5874 5876 5877 5878 5879 5880 5881 5882 5884 5885 5886 5887 5888 5890 5891 5891 5891 5892 5893 5894 5894 5895 5896 5896 5897 5897 5898 5898 5899 5899 5899 5900 5900 5900 5900 5900 5900 5900 5900 5899 5899 5898 5898 5898 5898 5898 5898 5898 5898 5898
5868 5867 5867 5867 5867 5867 5866 5866 5865 5865 5865 5865 5865 5865 5864 5864 5864 5864 5864 5864 5864 5865 5865 5865 5865 5866 5866 5867 5868 5868 5868 5869 5869 5869 5870 5871 5871 5871 5872 5873 5874 5876 5877 5878 5879 5880 5882 5883 5885 5886 5887 5888 5889 5889 5890 5891 5892 5893 5893 5894 5895 5896 5896 5897 5898 5898 5898 5899 5899 5900 5900 5900 5900 5900 5900 5900 5900 5899 5899 5898 5897 5897 5897 5897 5897 5897 5898 5897
5864 5864 5863 5863 5863 5863 5863 5863 5862 5862 5862 5862 5862 5862 5862 5862 5862 5861 5862 5862 5862 5862 5862 5863 5863 5863 5863 5864 5865 5866 5866 5866 5866 5868 5868 5869 5869 5869 5870 5871 5872 5874 5875 5876 5877 5878 5880 5882 5883 5884 5885 5885 5886 5887 5888 5890 5890 5891 5891 5893 5894 5895 5896 5896 5897 5898 5898 5899 5899 5899 5900 5900 5900 5900 5900 5900 5899 5899 5898 5898 5897 5897 5897 5897 5897 5897 5897 5897
5861 5860 5860 5860 5860 5860 5859 5859 5859 5859 5859 5859 5859 5859 5859 5859 5859 5859 5859 5859 5859 5859 5859 5860 5860 5861 5861 5862 5863 5863 5864 5864 5864 5866 5866 5867 5868 5867 5868 5869 5870 5871 5872 5874 5875 5876 5878 5880 5881 5881 5882 5883 5885 5886 5887 5888 5889 5889 5890 5891 5893 5894 5895 5896 5896 5897 5898 5898 5899 5899 5900 5900 5900 5900 5900 5899 5899 5899 5898 5898 5897 5897 5897 5897 5896 5897 5897 5897
5857 5856 5856 5856 5856 5856 5855 5855 5855 5855 5855 5856 5856 5856 5856 5856 5856 5856 5856 5856 5856 5856 5856 5856 5857 5858 5858 5859 5859 5860 5862 5862 5862 5863 5864 5865 5866 5866 5866 5867 5868 5869 5870 5872 5873 5874 5875 5877 5878 5878 5880 5882 5884 5885 5886 5887 5887 5888 5889 5890 5892 5893 5894 5895 5896 5896 5897 5898 5898 5899 5899 5899 5899 5899 5899 5899 5898 5898 5898 5898 5897 5897 5897 5897 5896 5896 5896 5897
5853 5852 5852 5852 5852 5852 5851 5851 5851 5851 5851 5852 5853 5853 5853 5853 5853 5853 5853 5853 5853 5853 5853 5854 5854 5855 5856 5857 5856 5858 5860 5859 5860 5861 5861 5862 5863 5864 5865 5865 5866 5867 5868 5869 5870 5871 5872 5874 5875 5877 5878 5880 5882 5882 5883 5885 5886 5887 5888 5889 5890 5891 5893 5894 5895 5896 5896 5898 5898 5898 5899 5900 5899 5898 5898 5898 5898 5898 5898 5897 5897 5896 5896 5896 5896 5896 5896 5896
5848 5847 5847 5847 5847 5847 5847 5847 5847 5847 5847 5847 5848 5849 5849 5849 5849 5849 5849 5850 5850 5850 5850 5851 5851 5851 5853 5853 5852 5855 5857 5856 5857 5858 5859 5860 5860 5861 5862 5864 5864 5865 5866 5867 5868 5869 5869 5871 5873 5874 5876 5877 5879 5879 5881 5884 5885 5886 5887 5888 5889 5890 5893 5894 5894 5895 5895 5896 5897 5898 5899 5901 5900 5898 5897 5897 5896 5897 5897 5897 5897 5896 5896 5895 5895 5895 5895 5895
5843 5843 5842 5842 5842 5842 5842 5842 5842 5842 5842 5843 5843 5844 5844 5845 5845 5846 5846 5846 5847 5847 5847 5847 5848 5849 5850 5849 5850 5853 5853 5853 5854 5854 5856 5857 5858 5859 5860 5861 5862 5863 5863 5864 5865 5866 5867 5869 5871 5873 5874 5875 5876 5876 5880 5882 5882 5884 5885 5886 5888 5890 5891 5893 5893 5893 5894 5895 5896 5897 5899 5901 5900 5896 5896 5896 5895 5896 5896 5896 5896 5896 5896 5895 5895 5895 5894 5894
5837 5837 5837 5837 5837 5837 5837 5837 5837 5837 5837 5838 5838 5839 5839 5840 5841 5841 5842 5842 5843 5843 5843 5844 5844 5845 5846 5847 5847 5849 5850 5850 5850 5851 5854 5855 5855 5856 5857 5859 5860 5861 5861 5862 5863 5864 5865 5866 5868 5871 5871 5873 5874 5875 5879 5880 5881 5883 5883 5885 5887 5889 5891 5892 5891 5892 5893 5894 5895 5896 5898 5901 5899 5895 5895 5894 5894 5894 5895 5895 5896 5895 5895 5895 5895 5894 5893 5893
5832 5832 5831 5831 5831 5831 5831 5831 5832 5832 5832 5832 5833 5834 5834 5835 5836 5836 5837 5838 5838 5839 5840 5840 5841 5842 5843 5844 5843 5845 5847 5847 5847 5849 5851 5851 5852 5853 5855 5856 5857 5858 5859 5859 5860 5861 5862 5864 5865 5867 5868 5870 5872 5873 5876 5877 5879 5881 5882 5884 5886 5888 5889 5890 5890 5891 5892 5893 5894 5895 5896 5899 5897 5893 5893 5894 5893 5893 5892 5893 5895 5894 5893 5893 5894 5894 5892 5892
5826 5826 5825 5825 5825 5825 5825 5825 5826 5826 5826 5827 5827 5828 5828 5829 5830 5831 5832 5833 5834 5835 5835 5836 5837 5838 5839 5839 5840 5841 5844 5844 5844 5846 5847 5847 5849 5850 5852 5853 5854 5855 5856 5857 5858 5859 5860 5861 5862 5863 5865 5867 5869 5871 5873 5876 5878 5879 5880 5883 5885 5886 5887 5889 5890 5891 5891 5892 5893 5894 5895 5896 5896 5893 5892 5892 5892 5892 5891 5891 5892 5893 5891 5891 5894 5893 5892 5891
5820 5820 5819 5819 5818 5819 5818 5818 5819 5819 5820 5820 5821 5822 5822 5823 5824 5825 5827 5827 5828 5829 5829 5831 5834 5833 5834 5836 5836 5837 5839 5841 5841 5842 5843 5845 5846 5847 5848 5849 5851 5852 5853 5855 5856 5856 5857 5858 5859 5860 5862 5864 5867 5869 5873 5876 5877 5878 5879 5881 5884 5885 5886 5888 5891 5891 5890 5891 5892 5892 5893 5895 5895 5893 5891 5892 5892 5892 5892 5891 5890 5890 5891 5891 5893 5893 5891 5890
5815 5814 5813 5812 5812 5812 5811 5812 5812 5812 5813 5814 5814 5815 5816 5817 5817 5819 5822 5822 5822 5824 5824 5827 5829 5828 5829 5832 5832 5833 5836 5836 5837 5838 5839 5841 5842 5843 5844 5846 5848 5849 5851 5852 5853 5854 5855 5855 5857 5858 5860 5862 5865 5868 5871 5873 5874 5875 5877 5879 5881 5883 5885 5886 5889 5890 5888 5888 5891 5891 5892 5894 5895 5893 5891 5890 5891 5891 5891 5891 5889 5889 5891 5892 5892 5892 5891 5891
5808 5807 5807 5806 5805 5805 5804 5804 5805 5805 5806 5807 5807 5807 5808 5810 5810 5812 5815 5816 5816 5818 5819 5821 5823 5824 5825 5827 5828 5829 5831 5831 5833 5834 5835 5837 5839 5839 5841 5843 5845 5847 5849 5850 5850 5851 5852 5853 5856 5857 5858 5860 5863 5865 5867 5869 5871 5873 5874 5876 5879 5880 5883 5884 5885 5887 5886 5885 5888 5889 5890 5892 5894 5895 5894 5890 5889 5890 5889 5890 5890 5888 5889 5891 5891 5890 5891 5891
5802 5801 5800 5799 5798 5798 5797 5797 5798 5798 5799 5800 5800 5800 5800 5802 5803 5805 5808 5810 5811 5811 5813 5815 5816 5820 5820 5820 5824 5825 5824 5826 5829 5830 5831 5833 5835 5836 5838 5839 5841 5844 5846 5846 5847 5848 5850 5853 5854 5855 5855 5857 5859 5861 5863 5865 5867 5869 5871 5873 5876 5878 5881 5882 5882 5885 5884 5883 5885 5886 5887 5890 5891 5893 5893 5890 5889 5888 5887 5888 5889 5889 5889 5890 5890 5889 5891 5892
5795 5793 5793 5792 5791 5791 5790 5789 5790 5791 5791 5792 5793 5793 5793 5794 5795 5797 5799 5803 5805 5804 5807 5809 5810 5813 5814 5815 5818 5819 5819 5822 5824 5825 5827 5829 5831 5833 5834 5835 5838 5840 5841 5842 5844 5846 5849 5851 5851 5851 5852 5853 5855 5857 5859 5861 5863 5865 5867 5869 5873 5876 5878 5880 5881 5883 5883 5882 5883 5885 5885 5886 5889 5888 5888 5891 5890 5886 5885 5886 5887 5888 5887 5887 5887 5888 5890 5890
5787 5786 5785 5784 5783 5783 5783 5782 5782 5782 5783 5784 5785 5785 5786 5786 5787 5789 5791 5794 5799 5799 5800 5802 5804 5806 5808 5809 5812 5813 5815 5817 5818 5820 5823 5824 5826 5829 5830 5832 5835 5835 5836 5839 5842 5844 5847 5847 5847 5848 5849 5850 5852 5853 5855 5857 5859 5861 5863 5866 5870 5872 5874 5877 5880 5882 5882 5881 5880 5882 5881 5881 5884 5886 5886 5889 5887 5884 5884 5884 5884 5887 5887 5885 5887 5889 5890 5888
5779 5778 5777 5776 5776 5774 5775 5775 5773 5774 5775 5775 5776 5777 5778 5779 5779 5781 5783 5785 5790 5793 5792 5795 5797 5800 5801 5803 5805 5809 5810 5811 5812 5815 5819 5820 5822 5824 5826 5828 5829 5830 5833 5836 5837 5840 5842 5843 5843 5845 5846 5847 5849 5850 5852 5854 5856 5857 5859 5863 5867 5869 5871 5874 5876 5880 5882 5880 5877 5877 5877 5878 5881 5882 5883 5884 5884 5882 5882 5882 5882 5883 5884 5884 5886 5889 5890 5887
5770 5769 5768 5768 5767 5766 5766 5765 5765 5765 5765 5766 5768 5769 5770 5771 5771 5773 5775 5777 5780 5784 5785 5787 5789 5792 5795 5797 5800 5802 5802 5805 5808 5809 5813 5816 5816 5819 5821 5823 5825 5827 5830 5832 5833 5835 5838 5839 5841 5842 5843 5845 5846 5848 5850 5851 5853 5854 5856 5861 5863 5865 5867 5869 5872 5875 5877 5875 5874 5874 5874 5876 5879 5879 5880 5881 5883 5883 5879 5879 5881 5880 5880 5882 5884 5887 5887 5885
5761 5759 5758 5757 5757 5757 5756 5755 5756 5756 5755 5756 5758 5760 5761 5762 5764 5765 5767 5769 5770 5773 5777 5780 5781 5784 5788 5790 5793 5794 5795 5800 5803 5803 5807 5811 5812 5814 5816 5818 5821 5823 5825 5827 5827 5830 5835 5836 5836 5839 5840 5841 5843 5845 5848 5848 5850 5851 5854 5857 5859 5861 5863 5865 5868 5869 5870 5870 5870 5872 5873 5874 5875 5877 5879 5878 5881 5883 5878 5876 5880 5879 5878 5880 5882 5884 5883 5881
5751 5749 5748 5746 5746 5746 5745 5746 5746 5745 5746 5747 5748 5749 5751 5753 5756 5758 5760 5760 5760 5762 5768 5771 5774 5777 5779 5782 5786 5787 5789 5794 5797 5798 5801 5805 5807 5808 5810 5813 5817 5820 5821 5822 5823 5828 5832 5831 5833 5836 5837 5838 5841 5844 5845 5846 5847 5850 5852 5854 5856 5858 5860 5862 5863 5864 5866 5865 5865 5868 5871 5871 5870 5873 5875 5875 5878 5881 5876 5873 5877 5878 5878 5878 5879 5882 5882 5882
5741 5738 5736 5735 5734 5733 5733 5734 5734 5734 5735 5736 5737 5739 5740 5743 5746 5748 5750 5752 5751 5753 5758 5761 5764 5768 5770 5774 5777 5780 5783 5786 5789 5792 5794 5797 5801 5803 5805 5809 5812 5815 5816 5817 5820 5824 5826 5827 5830 5832 5833 5836 5840 5841 5840 5842 5845 5848 5849 5851 5853 5853 5855 5857 5858 5860 5862 5859 5859 5864 5867 5867 5867 5869 5871 5871 5875 5877 5873 5873 5876 5877 5877 5877 5877 5878 5880 5881
5731 5728 5726 5723 5722 5721 5720 5720 5721 5722 5723 5724 5726 5727 5730 5732 5736 5738 5739 5743 5743 5743 5748 5751 5754 5758 5762 5766 5769 5772 5776 5778 5781 5785 5788 5791 5795 5797 5799 5803 5805 5807 5810 5812 5814 5817 5820 5822 5825 5826 5829 5833 5836 5835 5835 5838 5842 5844 5845 5846 5847 5849 5852 5853 5854 5857 5856 5851 5853 5860 5863 5863 5863 5866 5868 5869 5870 5872 5870 5871 5874 5874 5875 5876 5876 5875 5876 5877
5724 5720 5716 5714 5711 5709 5709 5707 5707 5708 5710 5712 5713 5715 5718 5720 5723 5726 5728 5733 5735 5734 5738 5740 5742 5748 5753 5757 5760 5763 5767 5770 5773 5777 5780 5783 5786 5789 5791 5794 5796 5799 5802 5805 5808 5812 5814 5817 5819 5821 5826 5829 5829 5829 5831 5835 5838 5839 5839 5841 5844 5847 5849 5850 5851 5852 5849 5846 5852 5858 5860 5860 5859 5862 5867 5867 5868 5870 5869 5868 5871 5872 5873 5875 5876 5874 5874 5875
5717 5713 5709 5706 5702 5699 5698 5696 5696 5695 5696 5698 5700 5702 5706 5707 5711 5715 5719 5724 5723 5722 5726 5728 5732 5739 5744 5749 5753 5756 5760 5763 5766 5769 5772 5775 5779 5782 5785 5789 5792 5794 5798 5802 5805 5809 5811 5814 5817 5818 5822 5824 5824 5825 5828 5831 5833 5834 5835 5837 5841 5844 5845 5845 5846 5846 5845 5847 5851 5856 5857 5857 5856 5861 5865 5866 5867 5868 5867 5866 5868 5871 5871 5873 5876 5875 5873 5873
5711 5707 5703 5698 5694 5691 5688 5686 5685 5685 5684 5685 5687 5689 5692 5694 5699 5703 5708 5709 5706 5709 5715 5718 5724 5731 5736 5741 5745 5748 5753 5756 5758 5762 5765 5768 5772 5776 5780 5784 5787 5790 5795 5799 5801 5804 5806 5808 5811 5812 5816 5819 5819 5821 5824 5826 5829 5830 5831 5835 5838 5840 5840 5841 5843 5844 5845 5847 5850 5852 5854 5853 5855 5859 5861 5863 5864 5865 5865 5865 5866 5869 5869 5870 5874 5873 5871 5872
5706 5701 5696 5691 5686 5683 5680 5678 5676 5674 5674 5674 5675 5677 5679 5682 5687 5693 5694 5690 5690 5698 5705 5710 5717 5723 5726 5732 5736 5739 5743 5746 5750 5754 5756 5760 5763 5767 5772 5776 5780 5785 5790 5793 5794 5798 5799 5800 5805 5808 5813 5816 5816 5818 5822 5824 5826 5828 5830 5833 5836 5837 5838 5840 5842 5843 5845 5847 5847 5848 5850 5851 5854 5856 5858 5860 5861 5862 5864 5864 5864 5867 5867 5867 5870 5870 5870 5872
5701 5696 5691 5685 5680 5675 5671 5669 5667 5666 5665 5664 5665 5667 5668 5672 5677 5680 5676 5674 5678 5686 5694 5703 5710 5713 5718 5723 5726 5730 5735 5739 5743 5745 5748 5752 5756 5760 5765 5770 5774 5778 5782 5785 5788 5792 5794 5797 5803 5807 5811 5813 5813 5816 5819 5821 5822 5825 5827 5829 5833 5836 5839 5840 5841 5842 5844 5846 5845 5844 5846 5850 5852 5853 5855 5857 5858 5860 5863 5862 5862 5865 5864 5863 5867 5869 5869 5871
5696 5692 5685 5679 5673 5668 5664 5660 5658 5657 5656 5656 5656 5657 5660 5664 5666 5662 5658 5660 5667 5675 5687 5695 5699 5703 5710 5715 5718 5722 5727 5731 5733 5736 5740 5745 5750 5755 5759 5763 5768 5771 5776 5780 5783 5787 5789 5793 5799 5801 5804 5808 5809 5812 5815 5817 5819 5822 5823 5827 5832 5836 5836 5836 5838 5841 5842 5842 5842 5842 5844 5847 5848 5850 5852 5854 5856 5858 5859 5860 5860 5862 5863 5862 5864 5868 5869 5870
5691 5688 5682 5675 5669 5663 5658 5653 5650 5649 5648 5648 5648 5649 5652 5655 5652 5648 5646 5650 5657 5666 5678 5683 5685 5691 5697 5705 5710 5710 5714 5720 5724 5729 5735 5739 5743 5747 5750 5756 5761 5764 5769 5775 5779 5781 5784 5788 5791 5794 5798 5802 5804 5808 5810 5813 5816 5817 5820 5826 5830 5830 5830 5832 5835 5837 5837 5837 5839 5841 5843 5844 5845 5848 5850 5851 5853 5854 5856 5858 5858 5860 5861 5861 5863 5866 5868 5870
5686 5682 5676 5669 5663 5658 5652 5648 5645 5643 5642 5642 5642 5643 5644 5643 5640 5636 5635 5642 5650 5658 5667 5672 5676 5680 5684 5693 5698 5696 5702 5713 5717 5722 5730 5733 5735 5736 5740 5745 5748 5753 5760 5766 5770 5773 5776 5782 5785 5787 5791 5796 5800 5803 5803 5805 5810 5813 5817 5822 5823 5823 5826 5828 5830 5831 5832 5834 5837 5840 5842 5842 5843 5846 5848 5849 5850 5850 5852 5855 5856 5857 5859 5861 5862 5864 5866 5869
5680 5674 5669 5663 5658 5653 5648 5644 5640 5637 5636 5635 5636 5635 5634 5632 5631 5628 5629 5637 5644 5648 5655 5662 5666 5669 5675 5681 5682 5682 5691 5699 5703 5711 5721 5725 5725 5727 5731 5733 5736 5743 5750 5755 5760 5766 5771 5778 5783 5782 5784 5790 5794 5795 5796 5799 5804 5808 5810 5813 5817 5819 5823 5825 5827 5829 5832 5833 5836 5838 5839 5840 5842 5844 5845 5846 5847 5848 5850 5851 5853 5855 5857 5860 5862 5863 5864 5866
5676 5670 5665 5660 5654 5648 5644 5640 5636 5633 5632 5630 5629 5628 5626 5625 5625 5624 5625 5630 5633 5636 5643 5650 5654 5658 5664 5668 5668 5670 5678 5686 5693 5700 5706 5710 5712 5715 5720 5725 5730 5738 5744 5749 5756 5764 5766 5771 5780 5779 5776 5782 5787 5789 5794 5796 5799 5803 5804 5807 5812 5815 5819 5822 5823 5826 5829 5832 5834 5837 5839 5840 5840 5840 5842 5843 5845 5846 5848 5849 5851 5854 5856 5858 5860 5862 5863 5864
5673 5667 5661 5656 5651 5646 5641 5637 5634 5632 5630 5627 5625 5623 5622 5621 5621 5620 5620 5621 5623 5628 5634 5640 5645 5648 5653 5657 5656 5658 5666 5676 5684 5690 5695 5699 5699 5702 5708 5716 5724 5732 5740 5746 5752 5759 5759 5762 5773 5773 5767 5775 5784 5787 5792 5793 5795 5800 5801 5803 5808 5812 5815 5817 5819 5822 5826 5829 5831 5834 5838 5839 5837 5838 5840 5841 5842 5844 5846 5847 5849 5852 5854 5856 5858 5860 5862 5864
5669 5664 5659 5654 5649 5644 5639 5635 5632 5629 5627 5624 5622 5620 5618 5617 5616 5615 5615 5617 5619 5622 5625 5631 5637 5641 5645 5649 5648 5650 5657 5667 5675 5679 5686 5690 5690 5693 5702 5709 5716 5723 5732 5740 5746 5752 5753 5754 5764 5768 5764 5771 5780 5783 5786 5788 5791 5795 5797 5800 5805 5809 5813 5814 5816 5821 5823 5826 5829 5830 5834 5836 5835 5836 5838 5839 5841 5842 5844 5845 5847 5850 5852 5854 5856 5859 5860 5863
5665 5660 5656 5651 5646 5641 5636 5633 5630 5626 5624 5621 5619 5617 5614 5613 5613 5612 5613 5614 5615 5617 5619 5623 5627 5631 5635 5638 5640 5643 5649 5658 5666 5671 5677 5681 5682 5689 5698 5703 5708 5715 5723 5731 5737 5742 5744 5747 5756 5762 5762 5767 5773 5776 5780 5784 5785 5787 5790 5795 5799 5804 5809 5811 5814 5818 5819 5823 5826 5828 5831 5833 5833 5835 5836 5837 5839 5840 5841 5843 5845 5848 5850 5852 5855 5857 5859 5861
5661 5656 5651 5647 5642 5637 5633 5630 5627 5624 5621 5618 5615 5613 5611 5610 5610 5610 5610 5610 5610 5612 5614 5614 5617 5622 5626 5629 5632 5636 5643 5651 5659 5666 5672 5674 5673 5680 5690 5695 5701 5707 5712 5718 5723 5727 5734 5740 5748 5755 5758 5761 5765 5768 5772 5775 5778 5780 5785 5790 5795 5800 5805 5807 5810 5813 5816 5821 5824 5826 5829 5830 5830 5833 5834 5835 5837 5838 5839 5841 5844 5846 5848 5851 5853 5855 5856 5858
5658 5652 5646 5642 5638 5634 5630 5626 5624 5621 5618 5615 5613 5610 5609 5607 5607 5607 5607 5607 5607 5608 5609 5609 5612 5616 5620 5623 5626 5631 5638 5646 5652 5656 5661 5664 5666 5672 5681 5687 5692 5697 5703 5711 5717 5721 5727 5732 5738 5746 5752 5755 5758 5762 5765 5770 5774 5778 5781 5785 5790 5796 5800 5802 5806 5809 5812 5817 5820 5823 5826 5826 5828 5831 5833 5834 5835 5836 5838 5840 5842 5844 5846 5848 5849 5849 5852 5856
5654 5649 5644 5639 5635 5631 5627 5623 5620 5618 5615 5613 5610 5608 5606 5605 5604 5604 5604 5605 5605 5605 5605 5605 5607 5610 5613 5616 5619 5624 5632 5641 5646 5648 5650 5654 5657 5661 5667 5676 5684 5690 5699 5707 5712 5716 5721 5725 5730 5739 5747 5753 5756 5759 5762 5767 5771 5774 5777 5780 5785 5792 5795 5798 5801 5805 5809 5813 5816 5820 5822 5823 5825 5829 5831 5833 5834 5834 5836 5838 5839 5841 5843 5844 5844 5845 5850 5854
5649 5646 5641 5637 5633 5628 5625 5621 5617 5615 5612 5610 5608 5606 5604 5603 5602 5601 5601 5602 5602 5602 5602 5601 5603 5606 5608 5610 5612 5616 5623 5631 5638 5641 5641 5641 5643 5648 5659 5670 5678 5685 5693 5699 5703 5709 5715 5721 5727 5733 5740 5746 5749 5752 5755 5759 5765 5770 5774 5776 5781 5787 5790 5793 5797 5802 5806 5809 5813 5817 5820 5821 5822 5826 5829 5831 5831 5832 5834 5837 5838 5839 5841 5841 5842 5845 5849 5851
5646 5642 5637 5633 5629 5625 5621 5618 5615 5612 5610 5608 5606 5604 5602 5601 5600 5599 5598 5599 5599 5599 5599 5599 5600 5602 5603 5604 5607 5610 5615 5622 5628 5630 5630 5630 5634 5643 5657 5667 5672 5677 5683 5688 5694 5701 5707 5715 5722 5728 5734 5738 5740 5743 5748 5753 5759 5764 5768 5771 5776 5781 5785 5788 5794 5799 5802 5806 5810 5813 5817 5819 5821 5824 5828 5829 5829 5829 5833 5835 5836 5836 5838 5840 5842 5845 5847 5849
5643 5639 5634 5629 5625 5622 5618 5615 5612 5609 5607 5605 5603 5602 5600 5599 5598 5596 5596 5596 5595 5595 5596 5596 5596 5598 5599 5600 5602 5605 5609 5614 5618 5621 5622 5625 5632 5642 5652 5658 5662 5666 5672 5679 5686 5693 5702 5710 5714 5719 5727 5732 5733 5736 5742 5747 5751 5756 5761 5766 5770 5775 5780 5785 5790 5795 5798 5802 5807 5810 5813 5817 5818 5821 5825 5827 5826 5827 5829 5831 5832 5834 5836 5839 5841 5844 5846 5848
5640 5636 5632 5627 5622 5619 5616 5612 5609 5606 5604 5603 5601 5599 5598 5597 5595 5594 5593 5593 5592 5592 5592 5592 5592 5593 5595 5597 5599 5601 5603 5605 5609 5613 5617 5622 5628 5634 5639 5642 5644 5652 5663 5672 5680 5689 5697 5701 5705 5711 5718 5724 5727 5732 5736 5740 5745 5751 5756 5761 5765 5770 5775 5780 5785 5790 5794 5798 5802 5806 5809 5813 5815 5818 5822 5823 5823 5824 5826 5828 5830 5832 5834 5836 5839 5842 5844 5845
5637 5633 5630 5625 5621 5617 5614 5610 5607 5604 5602 5600 5599 5597 5596 5594 5593 5592 5591 5590 5589 5589 5588 5588 5589 5589 5591 5593 5595 5596 5597 5599 5604 5608 5611 5616 5620 5624 5630 5635 5641 5651 5661 5668 5675 5685 5689 5692 5699 5706 5711 5717 5722 5726 5732 5738 5741 5745 5750 5755 5760 5764 5769 5775 5780 5784 5789 5793 5797 5802 5806 5809 5812 5815 5819 5820 5821 5822 5825 5827 5829 5830 5831 5833 5835 5837 5840 5841
5634 5629 5626 5622 5618 5615 5612 5608 5605 5602 5600 5598 5596 5595 5593 5592 5590 5590 5589 5587 5586 5586 5585 5585 5585 5585 5587 5589 5590 5590 5592 5595 5599 5601 5604 5608 5612 5618 5626 5634 5641 5649 5656 5660 5667 5675 5680 5686 5695 5699 5704 5713 5718 5722 5730 5733 5733 5737 5745 5751 5755 5759 5765 5770 5774 5779 5784 5788 5792 5798 5803 5806 5808 5812 5816 5818 5819 5821 5824 5825 5827 5828 5829 5831 5832 5834 5836 5837